N8IR-19 Weather Reports


Display with metric or nautical units.
time (UTC)temp
F
wind
direction
speed
MPH
gust
MPH
rain 1hr
in
rain 24hr
in
rain mn
in
humidity
%
barometer
mb
20260901103618 77 0 7.0 9.0 0.00 0.00 0.00 49 995.8
20260901103138 77 225 6.0 8.0 0.00 0.00 0.00 49 995.8
20260901102618 77 248 6.0 8.0 0.00 0.00 0.00 49 995.8
20260901102118 77 225 6.0 8.0 0.00 0.00 0.00 49 995.7
20260901101638 77 0 9.0 11.0 0.00 0.00 0.00 49 995.7
20260901101119 77 0 9.0 11.0 0.00 0.00 0.00 49 995.7
20260901100618 77 0 9.0 11.0 0.00 0.00 0.00 49 995.6
20260901100118 77 225 9.0 10.0 0.00 0.00 0.00 49 995.5
20260901095618 77 0 9.0 11.0 0.00 0.00 0.00 50 995.5
20260901095122 77 0 11.0 12.0 0.00 0.00 0.00 50 995.5
20260901094621 77 225 10.0 12.0 0.00 0.00 0.00 50 995.5
20260901094121 77 0 10.0 12.0 0.00 0.00 0.00 50 995.5
20260901093618 77 0 10.0 12.0 0.00 0.00 0.00 50 995.5
20260901093118 77 0 11.0 13.0 0.00 0.00 0.00 50 995.5
20260901092638 77 0 10.0 12.0 0.00 0.00 0.00 50 995.4
20260901092120 77 0 8.0 11.0 0.00 0.00 0.00 51 995.5
20260901091621 77 0 8.0 10.0 0.00 0.00 0.00 51 995.5
20260901091120 77 0 9.0 11.0 0.00 0.00 0.00 50 995.4
20260901090618 77 0 8.0 10.0 0.00 0.00 0.00 50 995.5
20260901090142 77 0 9.0 10.0 0.00 0.00 0.00 50 995.5
20260901085618 77 0 10.0 11.0 0.00 0.00 0.00 50 995.4
20260901085139 77 0 9.0 11.0 0.00 0.00 0.00 50 995.4
20260901084618 77 0 8.0 9.0 0.00 0.00 0.00 50 995.4
20260901084119 77 0 8.0 11.0 0.00 0.00 0.00 50 995.4
20260901083618 77 0 9.0 10.0 0.00 0.00 0.00 50 995.4
20260901083118 77 0 9.0 12.0 0.00 0.00 0.00 50 995.4
20260901082618 77 0 9.0 11.0 0.00 0.00 0.00 50 995.4
20260901082118 77 0 8.0 11.0 0.00 0.00 0.00 50 995.5
20260901081618 77 0 9.0 12.0 0.00 0.00 0.00 50 995.4
20260901081137 77 0 8.0 11.0 0.00 0.00 0.00 50 995.4
20260901080618 77 0 7.0 10.0 0.00 0.00 0.00 50 995.5
20260901080117 77 0 8.0 11.0 0.00 0.00 0.00 50 995.5
20260901075617 77 0 7.0 9.0 0.00 0.00 0.00 50 995.5
20260901075118 77 0 8.0 10.0 0.00 0.00 0.00 50 995.5
20260901074618 77 0 8.0 11.0 0.00 0.00 0.00 50 995.4
20260901074138 77 0 9.0 11.0 0.00 0.00 0.00 50 995.4
20260901073618 77 0 9.0 12.0 0.00 0.00 0.00 50 995.5
20260901073138 77 0 8.0 10.0 0.00 0.00 0.00 50 995.6
20260901072618 77 0 9.0 12.0 0.00 0.00 0.00 50 995.6
20260901072118 77 0 9.0 12.0 0.00 0.00 0.00 50 995.6
20260901071619 77 0 8.0 10.0 0.00 0.00 0.00 50 995.6
20260901071117 77 0 7.0 10.0 0.00 0.00 0.00 50 995.6
20260901070619 77 0 8.0 10.0 0.00 0.00 0.00 50 995.6
20260901070118 77 0 7.0 10.0 0.00 0.00 0.00 50 995.6
20260901065619 77 0 7.0 9.0 0.00 0.00 0.00 50 995.7
20260901065120 77 0 8.0 10.0 0.00 0.00 0.00 50 995.6
20260901064620 77 0 9.0 11.0 0.00 0.00 0.00 50 995.6
20260901064120 77 0 9.0 12.0 0.00 0.00 0.00 50 995.5
20260901063617 77 0 8.0 11.0 0.00 0.00 0.00 50 995.5
20260901063120 77 0 8.0 10.0 0.00 0.00 0.00 49 995.5
20260901062620 77 0 7.0 9.0 0.00 0.00 0.00 49 995.5
20260901062140 77 0 9.0 11.0 0.00 0.00 0.00 49 995.5
20260901061619 77 0 10.0 11.0 0.00 0.00 0.00 49 995.5
20260901061141 77 0 9.0 11.0 0.00 0.00 0.00 49 995.6
20260901060620 77 0 11.0 14.0 0.00 0.00 0.00 50 995.6
20260901060121 77 0 3.0 6.0 0.00 0.00 0.00 50 995.7
20260901055640 77 0 9.0 10.0 0.00 0.00 0.00 50 995.8
20260901055120 77 0 7.0 11.0 0.00 0.00 0.00 50 995.8
20260901054620 77 0 8.0 10.0 0.00 0.00 0.00 50 995.9
20260901054121 77 0 9.0 11.0 0.00 0.00 0.00 50 995.8
20260901053617 77 0 7.0 10.0 0.00 0.00 0.00 50 995.8
20260901053120 77 0 6.0 8.0 0.00 0.00 0.00 50 995.7
20260901052619 77 0 8.0 10.0 0.00 0.00 0.00 50 995.7
20260901052120 77 0 4.0 7.0 0.00 0.00 0.00 50 995.8
20260901051620 77 0 4.0 9.0 0.00 0.00 0.00 50 995.8
20260901051119 77 0 7.0 10.0 0.00 0.00 0.00 50 995.9
20260901050620 77 0 5.0 9.0 0.00 0.00 0.00 50 995.9
20260901050120 77 0 6.0 9.0 0.00 0.00 0.00 50 995.9
20260901045638 77 0 7.0 9.0 0.00 0.00 0.00 50 996.0
20260901045120 77 0 4.0 9.0 0.00 0.00 0.00 50 995.8
20260901044620 77 0 6.0 8.0 0.00 0.00 0.00 50 995.9
20260901044118 77 0 4.0 6.0 0.00 0.00 0.00 50 995.8
20260901043617 77 0 2.0 3.0 0.00 0.00 0.00 50 995.7
20260901043120 77 180 1.0 3.0 0.00 0.00 0.00 50 995.7
20260901042617 77 180 2.0 3.0 0.00 0.00 0.00 50 995.8
20260901042117 77 0 4.0 5.0 0.00 0.00 0.00 50 995.8
20260901041617 77 203 4.0 5.0 0.00 0.00 0.00 49 995.8
20260901041117 77 0 2.0 4.0 0.00 0.00 0.00 50 995.8
20260901040619 77 0 3.0 6.0 0.00 0.00 0.00 50 995.8
20260901040137 77 0 4.0 5.0 0.00 0.00 0.00 50 995.8
20260901035618 77 0 2.0 4.0 0.00 0.00 0.00 50 995.7
20260901035118 77 180 3.0 5.0 0.00 0.00 0.00 50 995.7
20260901034618 77 180 2.0 4.0 0.00 0.00 0.00 50 995.7
20260901034118 77 0 4.0 5.0 0.00 0.00 0.00 50 995.5
20260901033618 77 0 2.0 5.0 0.00 0.00 0.00 50 995.6
20260901033117 77 0 2.0 3.0 0.00 0.00 0.00 50 995.6
20260901032618 77 0 3.0 5.0 0.00 0.00 0.00 51 995.7
20260901032117 77 0 3.0 5.0 0.00 0.00 0.00 51 995.7
20260901031617 76 158 2.0 5.0 0.00 0.00 0.00 51 995.6
20260901031118 76 180 2.0 4.0 0.00 0.00 0.00 51 995.6
20260901030638 76 158 1.0 4.0 0.00 0.00 0.00 52 995.7
20260901030118 76 180 1.0 1.0 0.00 0.00 0.00 52 995.9
20260901025618 76 0.0 1.0 0.00 0.00 0.00 53 996.0
20260901025118 76 0.0 1.0 0.00 0.00 0.00 53 996.1
20260901024617 76 0.0 0.0 0.00 0.00 0.00 53 996.2
20260901024118 76 0.0 2.0 0.00 0.00 0.00 54 996.1
20260901023617 77 180 2.0 4.0 0.00 0.00 0.00 55 996.0
20260901023118 77 0.0 1.0 0.00 0.00 0.00 55 996.1
20260901022618 77 0.0 1.0 0.00 0.00 0.00 55 995.8
20260901022137 77 0.0 1.0 0.00 0.00 0.00 56 995.8
20260901021638 77 0.0 1.0 0.00 0.00 0.00 56 995.8
20260901021258 77 0.0 1.0 0.00 0.00 0.00 56 995.9
20260901020637 77 203 1.0 2.0 0.00 0.00 0.00 56 995.9
20260901020118 77 0.0 1.0 0.00 0.00 0.00 56 995.6
20260901015617 77 203 1.0 4.0 0.00 0.00 0.00 56 995.5
20260901015118 77 180 3.0 5.0 0.00 0.00 0.00 56 995.3
20260901014638 77 180 1.0 3.0 0.00 0.00 0.00 56 995.4
20260901014117 78 180 3.0 6.0 0.00 0.00 0.00 56 995.5
20260901013617 78 180 1.0 3.0 0.00 0.00 0.00 56 995.5
20260901013117 78 0.0 1.0 0.00 0.00 0.00 56 995.5
20260901012617 78 0 1.0 2.0 0.00 0.00 0.00 56 995.5
20260901012138 78 203 1.0 3.0 0.00 0.00 0.00 55 995.6
20260901011639 78 0 3.0 4.0 0.00 0.00 0.00 55 995.6
20260901011117 78 0 4.0 5.0 0.00 0.00 0.00 55 995.6
20260901010618 78 248 4.0 5.0 0.00 0.00 0.00 55 995.7
20260901010137 78 0 8.0 10.0 0.00 0.00 0.00 55 995.6
20260901005638 78 225 5.0 7.0 0.00 0.00 0.00 55 995.7
20260901005138 78 248 7.0 9.0 0.00 0.00 0.00 55 995.1
20260901004618 78 0 11.0 13.0 0.00 0.00 0.00 55 994.7
20260901004117 78 0 10.0 15.0 0.00 0.00 0.00 55 994.6
20260901003617 78 0 9.0 15.0 0.00 0.00 0.00 55 994.6
20260901003118 78 0 9.0 14.0 0.00 0.00 0.00 55 994.6
20260901002618 78 0 9.0 12.0 0.00 0.00 0.00 55 994.6
20260901002117 78 0 9.0 13.0 0.00 0.00 0.00 55 994.8
20260901001658 78 0 9.0 12.0 0.00 0.00 0.00 55 994.9
20260901001117 79 0 13.0 15.0 0.00 0.00 0.00 55 995.2
20260901000620 79 0 11.0 15.0 0.00 0.00 0.00 54 995.6
20260901000119 79 0 12.0 14.0 0.00 0.00 0.00 54 995.8
20260831235619 79 0 12.0 14.0 0.00 0.00 0.00 55 996.0
20260831235120 80 0 10.0 12.0 0.00 0.00 0.00 54 996.3
20260831234617 80 0 8.0 10.0 0.00 0.00 0.00 54 996.7
20260831234119 80 0 6.0 8.0 0.00 0.00 0.00 53 996.8
20260831233617 80 0 6.0 8.0 0.00 0.00 0.00 53 996.9
20260831233120 80 0 6.0 8.0 0.00 0.00 0.00 52 997.0
20260831232620 80 0 4.0 5.0 0.00 0.00 0.00 52 997.0
20260831232159 80 0 6.0 8.0 0.00 0.00 0.00 53 997.0
20260831231620 81 248 3.0 4.0 0.00 0.00 0.00 53 997.2
20260831231143 81 248 2.0 2.0 0.00 0.00 0.00 54 997.3
20260831230617 81 248 2.0 3.0 0.00 0.00 0.00 54 997.3
20260831230120 81 248 2.0 4.0 0.00 0.00 0.00 54 997.4
20260831225620 81 248 1.0 2.0 0.00 0.00 0.00 54 997.6
20260831225120 81 248 2.0 3.0 0.00 0.00 0.00 54 997.7
20260831224621 81 0.0 0.0 0.00 0.00 0.00 54 997.8
20260831224120 82 0.0 0.0 0.00 0.00 0.00 54 997.9
20260831223617 82 0.0 0.0 0.00 0.00 0.00 53 997.8
20260831223140 82 0.0 0.0 0.00 0.00 0.00 53 997.9
20260831222617 83 248 2.0 3.0 0.00 0.00 0.00 53 997.9
20260831222119 83 248 2.0 3.0 0.00 0.00 0.00 53 997.9
20260831221617 83 248 2.0 2.0 0.00 0.00 0.00 52 997.7
20260831221120 84 248 3.0 4.0 0.00 0.00 0.00 51 997.7
20260831220640 84 248 3.0 4.0 0.00 0.00 0.00 50 997.6
20260831220157 85 248 3.0 4.0 0.00 0.00 0.00 50 997.6
20260831215620 86 0.0 1.0 0.00 0.00 0.00 50 997.5
20260831215120 86 248 1.0 2.0 0.00 0.00 0.00 48 997.4
20260831214619 86 248 1.0 2.0 0.00 0.00 0.00 47 997.3
20260831214119 87 248 1.0 2.0 0.00 0.00 0.00 47 997.2
20260831213617 87 248 3.0 8.0 0.00 0.00 0.00 47 997.1
20260831213120 87 225 2.0 3.0 0.00 0.00 0.00 47 997.0
20260831212620 87 225 2.0 3.0 0.00 0.00 0.00 48 997.0
20260831212117 87 248 3.0 5.0 0.00 0.00 0.00 48 997.0
20260831211620 87 248 4.0 4.0 0.00 0.00 0.00 49 996.9
20260831211120 86 248 2.0 4.0 0.00 0.00 0.00 49 997.0
20260831210619 86 225 2.0 3.0 0.00 0.00 0.00 49 997.1
20260831210119 86 225 4.0 5.0 0.00 0.00 0.00 49 997.0
20260831205619 86 225 1.0 2.0 0.00 0.00 0.00 49 997.2
20260831205138 86 0.0 0.0 0.00 0.00 0.00 49 997.2
20260831204617 86 225 2.0 3.0 0.00 0.00 0.00 49 997.2
20260831204119 85 225 5.0 6.0 0.00 0.00 0.00 50 997.2
20260831203620 85 225 3.0 4.0 0.00 0.00 0.00 51 997.2
20260831203116 85 225 1.0 2.0 0.00 0.00 0.00 51 997.2
20260831202618 85 203 1.0 2.0 0.00 0.00 0.00 51 997.3
20260831202117 85 203 1.0 3.0 0.00 0.00 0.00 51 997.2
20260831201617 85 0.0 1.0 0.00 0.00 0.00 51 997.2
20260831201117 85 203 3.0 4.0 0.00 0.00 0.00 52 997.1
20260831200617 84 225 1.0 2.0 0.00 0.00 0.00 52 997.0
20260831200116 84 0.0 1.0 0.00 0.00 0.00 52 997.0
20260831195617 84 225 1.0 2.0 0.00 0.00 0.00 52 996.9
20260831195117 84 225 2.0 3.0 0.00 0.00 0.00 52 997.1
20260831194617 84 225 2.0 2.0 0.00 0.00 0.00 52 997.2
20260831194117 83 0.0 0.0 0.00 0.00 0.00 52 997.5
20260831193616 83 0.0 1.0 0.00 0.00 0.00 52 997.4
20260831193117 83 225 2.0 3.0 0.00 0.00 0.00 52 997.0
20260831192617 83 225 2.0 3.0 0.00 0.00 0.00 52 997.0
20260831192117 83 225 3.0 4.0 0.00 0.00 0.00 52 997.2
20260831191617 83 225 3.0 4.0 0.00 0.00 0.00 51 997.1
20260831191116 84 225 4.0 4.0 0.00 0.00 0.00 51 997.2
20260831190616 84 225 4.0 5.0 0.00 0.00 0.00 50 997.0
20260831190117 84 0 5.0 6.0 0.00 0.00 0.00 50 997.0
20260831185617 84 0 7.0 8.0 0.00 0.00 0.00 49 997.0
20260831185117 85 0 6.0 8.0 0.00 0.00 0.00 48 997.2
20260831184636 85 0 3.0 4.0 0.00 0.00 0.00 47 997.4
20260831184137 85 0 5.0 6.0 0.00 0.00 0.00 47 997.5
20260831183616 85 0 2.0 4.0 0.00 0.00 0.00 48 997.7
20260831183136 85 0.0 0.0 0.00 0.00 0.00 48 997.8
20260831182617 85 0.0 0.0 0.00 0.00 0.00 47 997.9
20260831182116 85 0.0 0.0 0.00 0.00 0.00 46 997.9
20260831181616 85 0.0 0.0 0.00 0.00 0.00 46 998.0
20260831181117 85 0.0 0.0 0.00 0.00 0.00 46 998.0
20260831180616 85 0.0 0.0 0.00 0.00 0.00 47 998.1
20260831180116 85 0.0 0.0 0.00 0.00 0.00 47 998.2
20260831175617 85 0.0 0.0 0.00 0.00 0.00 47 998.2
20260831175116 85 0.0 0.0 0.00 0.00 0.00 46 998.2
20260831174617 85 248 2.0 3.0 0.00 0.00 0.00 46 998.3
20260831174137 85 248 2.0 3.0 0.00 0.00 0.00 46 998.4
20260831173617 85 248 2.0 3.0 0.00 0.00 0.00 47 998.5
20260831173116 85 248 1.0 1.0 0.00 0.00 0.00 47 998.5
20260831172616 86 248 2.0 2.0 0.00 0.00 0.00 47 998.6
20260831172117 86 248 2.0 2.0 0.00 0.00 0.00 46 998.5
20260831171616 86 0 2.0 3.0 0.00 0.00 0.00 47 998.5
20260831171119 86 0 2.0 3.0 0.00 0.00 0.00 46 998.6
20260831170619 86 248 2.0 3.0 0.00 0.00 0.00 47 998.6
20260831170119 86 0 2.0 2.0 0.00 0.00 0.00 47 998.6
20260831165618 86 248 2.0 4.0 0.00 0.00 0.00 47 998.5
20260831165139 86 0 3.0 3.0 0.00 0.00 0.00 46 998.5
20260831164618 86 0 2.0 4.0 0.00 0.00 0.00 46 998.4
20260831164121 86 0 3.0 4.0 0.00 0.00 0.00 46 998.4
20260831163620 86 0 3.0 5.0 0.00 0.00 0.00 45 998.3
20260831163118 86 0 4.0 5.0 0.00 0.00 0.00 47 998.4
20260831162641 86 0 3.0 5.0 0.00 0.00 0.00 47 998.4
20260831162142 86 248 3.0 4.0 0.00 0.00 0.00 46 998.3
20260831161641 86 0 4.0 6.0 0.00 0.00 0.00 46 998.4
20260831161122 86 248 3.0 5.0 0.00 0.00 0.00 48 998.4
20260831160620 86 225 3.0 4.0 0.00 0.00 0.00 47 998.4
20260831160118 86 248 3.0 5.0 0.00 0.00 0.00 48 998.4
20260831155618 85 248 3.0 4.0 0.00 0.00 0.00 48 998.3
20260831155139 85 248 7.0 10.0 0.00 0.00 0.00 48 998.2
20260831154621 84 248 3.0 4.0 0.00 0.00 0.00 48 998.3
20260831154121 83 248 5.0 5.0 0.00 0.00 0.00 49 998.3
20260831153621 83 0 7.0 10.0 0.00 0.00 0.00 49 998.3
20260831153121 83 0 9.0 11.0 0.00 0.00 0.00 48 998.3
20260831152618 83 225 7.0 10.0 0.00 0.00 0.00 48 998.3
20260831152118 82 0 8.0 11.0 0.00 0.00 0.00 48 998.3
20260831151621 82 0 8.0 10.0 0.00 0.00 0.00 48 998.3
20260831151120 82 0 9.0 12.0 0.00 0.00 0.00 49 998.3
20260831150641 81 0 6.0 8.0 0.00 0.00 0.00 49 998.4
20260831150121 81 0 6.0 8.0 0.00 0.00 0.00 48 998.6
20260831145620 81 248 7.0 10.0 0.00 0.00 0.00 48 998.5
20260831145121 80 0 7.0 9.0 0.00 0.00 0.00 48 998.5
20260831144618 80 248 3.0 4.0 0.00 0.00 0.00 47 998.5
20260831144138 80 0 8.0 12.0 0.00 0.00 0.00 47 998.5
20260831143620 79 0 7.0 10.0 0.00 0.00 0.00 46 998.4
20260831143120 79 0 6.0 9.0 0.00 0.00 0.00 46 998.3
20260831142620 78 0 8.0 11.0 0.00 0.00 0.00 46 998.3
20260831142118 78 0 7.0 10.0 0.00 0.00 0.00 46 998.3
20260831141619 77 0 4.0 9.0 0.00 0.00 0.00 46 998.2
20260831141118 77 180 2.0 5.0 0.00 0.00 0.00 46 998.1
20260831140638 76 0 4.0 5.0 0.00 0.00 0.00 46 998.2
20260831140118 76 0 3.0 5.0 0.00 0.00 0.00 47 998.2
20260831135639 76 0 5.0 9.0 0.00 0.00 0.00 47 998.3
20260831135118 76 0 4.0 7.0 0.00 0.00 0.00 47 998.3
20260831134618 76 0 4.0 6.0 0.00 0.00 0.00 47 998.2
20260831134121 76 0 4.0 5.0 0.00 0.00 0.00 47 998.2
20260831133718 76 0 4.0 9.0 0.00 0.00 0.00 47 998.1
20260831133118 76 0 3.0 5.0 0.00 0.00 0.00 47 998.1
20260831132618 76 0 3.0 5.0 0.00 0.00 0.00 47 998.1
20260831132118 75 0 3.0 5.0 0.00 0.00 0.00 48 998.1
20260831131618 75 180 2.0 4.0 0.00 0.00 0.00 48 998.2
20260831131138 75 225 3.0 4.0 0.00 0.00 0.00 48 998.1
20260831130639 75 0 4.0 6.0 0.00 0.00 0.00 48 998.2
20260831130118 75 203 4.0 5.0 0.00 0.00 0.00 48 998.2
20260831125618 75 0 1.0 4.0 0.00 0.00 0.00 48 998.2
20260831125121 75 203 2.0 4.0 0.00 0.00 0.00 48 998.1
20260831124618 75 0 2.0 3.0 0.00 0.00 0.00 48 998.1
20260831124118 75 180 2.0 4.0 0.00 0.00 0.00 48 998.1
20260831123659 75 0 2.0 4.0 0.00 0.00 0.00 48 998.1
20260831123118 75 0 3.0 4.0 0.00 0.00 0.00 49 998.1
20260831122618 75 0 3.0 6.0 0.00 0.00 0.00 49 998.1
20260831122118 75 0 3.0 5.0 0.00 0.00 0.00 49 998.0
20260831121618 74 0 2.0 4.0 0.00 0.00 0.00 49 998.1
20260831121118 74 0 3.0 4.0 0.00 0.00 0.00 49 998.1
20260831120638 74 0 4.0 6.0 0.00 0.00 0.00 49 998.2
20260831120118 74 0 3.0 4.0 0.00 0.00 0.00 50 998.1
20260831115619 74 0 5.0 8.0 0.00 0.00 0.00 50 998.2
20260831115117 74 0 5.0 8.0 0.00 0.00 0.00 50 998.2
20260831114618 74 0 6.0 9.0 0.00 0.00 0.00 50 998.3
20260831114118 74 0 6.0 9.0 0.00 0.00 0.00 50 998.3
20260831113641 74 0 4.0 8.0 0.00 0.00 0.00 49 998.3
20260831113121 74 0 6.0 8.0 0.00 0.00 0.00 49 998.2
20260831112620 74 0 3.0 4.0 0.00 0.00 0.00 49 998.1
20260831112118 74 203 1.0 3.0 0.00 0.00 0.00 49 998.1
20260831111619 74 0 3.0 4.0 0.00 0.00 0.00 49 998.1
20260831111120 74 180 2.0 4.0 0.00 0.00 0.00 49 997.9
20260831110618 74 0 2.0 4.0 0.00 0.00 0.00 49 998.0
20260831110118 74 0 4.0 6.0 0.00 0.00 0.00 49 998.0
20260831105617 74 203 1.0 2.0 0.00 0.00 0.00 49 997.7
20260831105118 74 0 4.0 5.0 0.00 0.00 0.00 49 997.8
20260831104620 74 0 4.0 6.0 0.00 0.00 0.00 48 997.7
20260831104117 74 203 1.0 2.0 0.00 0.00 0.00 48 997.7